Tracking 25648 objects as of 16-May-2022
HD Live streaming from Space Station
objects crossing your sky now

COSMOS 2251 DEB

Track COSMOS 2251 DEB now!
10-day predictions


NORAD ID: 35993
Int'l Code: 1993-036AWK
Perigee: 699.8 km
Apogee: 751.4 km
Inclination: 74.0 °
Period: 99.2 minutes
Semi major axis: 7096 km
RCS: 0.0057 m2 (small)
Launch date: June 16, 1993
Source: Commonwealth of Independent States (former USSR) (CIS)
Launch site: PLESETSK MISSILE AND SPACE COMPLEX (PKMTR)

Note: This is SATELLITE DEBRIS
aabbcc
Your satellite tracking list
Your tracking list is empty




NASA's NSSDC Master Catalog

Two Line Element Set (TLE):
1 35993U 93036AWK 22135.72413362  .00002316  00000-0  57263-3 0  9999
2 35993  74.0182 300.2088 0036396  87.9943 272.5386 14.52209971413990
Source of the keplerian elements: AFSPC